This is the latest recevied weather packets stored in our database for station/object SV9TNF-57. If no packets are shown the sender has not sent any weather packets the latest 10 day(s).
| Time | Temp. | Humidity | Pressure | Rain* | Wind** | Luminosity | Snow |
|---|---|---|---|---|---|---|---|
| 1788518079 | 31.11° C | 35% | 994.5 hPa | 0 mm | 4.92 m/s, 4° | - | - |
| 1788517778 | 31.11° C | 35% | 994.4 hPa | 0 mm | 11.18 m/s, 274° | - | - |
| 1788517478 | 31.67° C | 33% | 994.5 hPa | 0 mm | 10.28 m/s, 315° | - | - |
| 1788517179 | 31.11° C | 34% | 994.4 hPa | 0 mm | 15.65 m/s, 296° | - | - |
| 1788516878 | 30.56° C | 34% | 994.3 hPa | 0 mm | 8.49 m/s, 130° | - | - |
| 1788516578 | 31.11° C | 34% | 994.5 hPa | 0 mm | 4.92 m/s, 239° | - | - |
| 1788516278 | 30.56° C | 34% | 994.5 hPa | 0 mm | 22.8 m/s, 18° | - | - |
| 1788515978 | 30.56° C | 34% | 994.6 hPa | 0 mm | 8.49 m/s, 288° | - | - |
| 1788515679 | 30.56° C | 35% | 994.4 hPa | 0 mm | 17.43 m/s, 339° | - | - |
| 1788515378 | 30° C | 35% | 994.5 hPa | 0 mm | 14.31 m/s, 143° | - | - |
| 1788515078 | 30° C | 34% | 994.4 hPa | 0 mm | 9.39 m/s, 332° | - | - |
| 1788514778 | 30° C | 35% | 994.6 hPa | 0 mm | 17.88 m/s, 217° | - | - |
| 1788514478 | 30.56° C | 34% | 994.8 hPa | 0 mm | 10.73 m/s, 304° | - | - |
| 1788514178 | 30.56° C | 36% | 994.6 hPa | 0 mm | 9.39 m/s, 243° | - | - |
| 1788513877 | 30.56° C | 36% | 994.6 hPa | 0 mm | 9.83 m/s, 291° | - | - |
| 1788513577 | 30.56° C | 35% | 994.4 hPa | 0 mm | 5.36 m/s, 325° | - | - |
| 1788513278 | 30.56° C | 35% | 994.8 hPa | 0 mm | 9.83 m/s, 7° | - | - |
| 1788512977 | 31.11° C | 34% | 994.6 hPa | 0 mm | 8.49 m/s, 94° | - | - |
| 1788512677 | 30.56° C | 35% | 994.7 hPa | 0 mm | 4.02 m/s, 355° | - | - |
| 1788512377 | 30.56° C | 35% | 994.6 hPa | 0 mm | 16.09 m/s, 320° | - | - |
| 1788512077 | 30° C | 36% | 994.7 hPa | 0 mm | 9.83 m/s, 19° | - | - |
| 1788511777 | 30° C | 36% | 994.6 hPa | 0 mm | 11.18 m/s, 357° | - | - |
| 1788511477 | 30.56° C | 35% | 994.6 hPa | 0 mm | 12.07 m/s, 328° | - | - |
| 1788511177 | 30.56° C | 35% | 994.5 hPa | 0 mm | 13.41 m/s, 301° | - | - |
| 1788510877 | 30.56° C | 35% | 994.7 hPa | 0 mm | 16.09 m/s, 338° | - | - |
* Rain latest hour (hover to see other rain measurements)
** Current wind speed in m/s (hover to see current wind gust speed)